"TOA5","MOW","CPU:UNC_MeetingWaters","DataHourly"
"TIMESTAMP","SondeTempC","SpCond","DOSat","DOmg","pH","Turb","BattVolt_Min"
"TS","","","","","","",""
"","Smp","Smp","Smp","Smp","Smp","Smp","Min"
"2006-05-01 00:00:00",9.82999992371,0.0,108.400001526,12.2899999619,6.61999988556,11.6999998093,12.9099998474
"2006-05-01 01:00:00",9.93000030518,0.0,108.099998474,12.220000267,6.67000007629,10.3000001907,12.8900003433
"2006-05-01 02:00:00",9.10999965668,0.0,108.099998474,12.470000267,6.65000009537,10.8000001907,12.8599996567
"2006-05-01 03:00:00",8.81999969482,0.0,108.0,12.5399999619,6.71999979019,10.3999996185,12.8299999237
"2006-05-01 04:00:00",9.23999977112,0.0,107.699996948,12.3699998856,6.73999977112,12.6000003815,12.8199996948
"2006-05-01 05:00:00",8.52999973297,0.0,107.5,12.5699996948,6.61999988556,10.3000001907,12.8100004196
"2006-05-01 06:00:00",8.32999992371,0.0,106.699996948,12.5399999619,6.69999980927,11.1000003815,12.8000001907
"2006-05-01 07:00:00",9.0,0.0,107.300003052,12.4099998474,6.65000009537,10.1000003815,12.8100004196
"2006-05-01 08:00:00",9.77000045776,0.0,107.900001526,12.25,6.59999990463,10.3000001907,12.8599996567
"2006-05-01 09:00:00",10.9099998474,0.0,108.300003052,11.9600000381,6.38999986649,10.6999998093,13.029999733
"2006-05-01 10:00:00",12.1999998093,0.0,108.699996948,11.6599998474,6.19999980927,12.3000001907,13.2299995422
"2006-05-01 11:00:00",14.1599998474,0.0,110.300003052,11.3199996948,6.23000001907,11.3999996185,14.1700000763
"2006-05-01 12:00:00",18.3400001526,0.0,114.0,10.7100000381,6.09999990463,11.3999996185,14.3500003815
"2006-05-01 13:00:00",20.0400009155,0.0,112.5,10.220000267,5.61000013351,11.1000003815,14.0900001526
"2006-05-01 14:00:00",21.0,0.0,112.199996948,10.0100002289,4.94999980927,11.3999996185,13.3400001526
"2006-05-01 15:00:00",20.7800006866,0.0,112.400001526,10.0600004196,4.88000011444,10.3999996185,13.2899999619
"2006-05-01 16:00:00",19.2900009155,0.0,111.099998474,10.25,4.96000003815,11.6000003815,13.2100000381
"2006-05-01 17:00:00",17.1100006104,0.0,111.5,10.7600002289,5.51999998093,12.6000003815,13.1999998093
"2006-05-01 18:00:00",17.4400005341,0.0,110.0,10.529999733,5.69999980927,12.5,13.1099996567
"2006-05-01 19:00:00",16.5599994659,0.0,109.0,10.6400003433,6.03000020981,14.6000003815,13.0500001907
"2006-05-01 20:00:00",15.6999998093,0.0,108.900001526,10.8100004196,6.34999990463,21.1000003815,13.0100002289
"2006-05-01 21:00:00",14.6700000763,0.0,108.699996948,11.0399999619,6.44000005722,50.4000015259,12.9799995422
"2006-05-01 22:00:00",14.0600004196,0.0,108.900001526,11.2100000381,6.57999992371,80.0999984741,12.9499998093
"2006-05-01 23:00:00",13.1999998093,0.0,108.400001526,11.3699998856,6.65999984741,93.4000015259,12.9200000763
"2006-05-02 00:00:00",12.0399999619,0.0,108.400001526,11.6700000763,6.75,86.8000030518,12.8900003433
"2006-05-02 01:00:00",11.8299999237,0.0,108.199996948,11.7100000381,6.90999984741,79.5999984741,12.8599996567
"2006-05-02 02:00:00",11.2299995422,0.0,108.099998474,11.8599996567,6.98999977112,81.9000015259,12.8500003815
"2006-05-02 03:00:00",11.2399997711,0.0010000000475,107.699996948,11.8100004196,7.11999988556,109.800003052,12.8199996948
"2006-05-02 04:00:00",11.2899999619,0.0010000000475,107.599998474,11.7899999619,7.26000022888,105.599998474,12.8100004196
"2006-05-02 05:00:00",10.2399997711,0.0010000000475,107.199996948,12.0399999619,7.36999988556,83.1999969482,12.8000001907
"2006-05-02 06:00:00",9.73999977112,0.0010000000475,107.0,12.1599998474,7.44000005722,62.4000015259,12.7899999619
"2006-05-02 07:00:00",8.93000030518,0.0010000000475,107.400001526,12.4399995804,7.48999977112,48.9000015259,12.7899999619
"2006-05-02 08:00:00",9.93999958038,0.0010000000475,107.400001526,12.1400003433,7.5,40.7999992371,12.8100004196
"2006-05-02 09:00:00",11.4399995804,0.0010000000475,108.099998474,11.8000001907,7.44000005722,29.0,12.8500003815
"2006-05-02 10:00:00",13.4600000381,0.0010000000475,108.300003052,11.2899999619,7.30000019073,22.5,13.0900001526
"2006-05-02 11:00:00",15.8500003815,0.0010000000475,108.800003052,10.779999733,6.75,21.2000007629,14.2299995422
"2006-05-02 12:00:00",20.0799999237,0.0,110.800003052,10.0600004196,5.90999984741,25.6000003815,14.1199998856
"2006-05-02 13:00:00",21.5,0.0,108.300003052,9.56000041962,5.36999988556,18.8999996185,14.0399999619
"2006-05-02 14:00:00",21.9500007629,0.0,108.599998474,9.5,5.53999996185,16.5,13.2899999619
"2006-05-02 15:00:00",21.5,0.0,109.300003052,9.64999961853,5.03000020981,16.3999996185,13.1899995804
"2006-05-02 16:00:00",20.6299991608,0.0,109.300003052,9.81999969482,5.53000020981,20.5,13.1999998093
"2006-05-02 17:00:00",19.75,0.0,109.099998474,9.97000026703,5.88000011444,24.8999996185,13.720000267
"2006-05-02 18:00:00",19.2199993134,0.0,109.0,10.0699996948,5.92000007629,23.6000003815,13.1199998856
"2006-05-02 19:00:00",18.8700008392,0.0,109.099998474,10.1400003433,6.28000020981,26.3999996185,13.0799999237
"2006-05-02 20:00:00",17.5799999237,0.0,108.800003052,10.3900003433,6.40000009537,20.0,13.0200004578
"2006-05-02 21:00:00",16.4200000763,0.0,108.699996948,10.6400003433,6.59000015259,18.3999996185,13.0
"2006-05-02 22:00:00",15.8100004196,0.0,108.400001526,10.7399997711,6.63000011444,19.7000007629,12.9600000381
"2006-05-02 23:00:00",14.8599996567,0.0,108.400001526,10.9600000381,6.69000005722,20.2000007629,12.9399995804
"2006-05-03 00:00:00",14.5900001526,0.0010000000475,108.300003052,11.0100002289,6.73000001907,19.8999996185,12.9099998474
"2006-05-03 01:00:00",14.4099998474,0.0010000000475,108.300003052,11.0600004196,6.76000022888,20.1000003815,12.8800001144
"2006-05-03 02:00:00",14.4899997711,0.0010000000475,108.0,11.0200004578,6.82999992371,20.2000007629,12.8500003815
"2006-05-03 03:00:00",14.2700004578,0.0010000000475,107.900001526,11.0500001907,6.84999990463,19.2000007629,12.8400001526
"2006-05-03 04:00:00",14.0699996948,0.0010000000475,107.900001526,11.1000003815,6.84000015259,17.2999992371,12.8199996948
"2006-05-03 05:00:00",14.0699996948,0.0010000000475,107.599998474,11.0699996948,6.84999990463,16.2999992371,12.8100004196
"2006-05-03 06:00:00",13.6999998093,0.0010000000475,107.599998474,11.1599998474,6.86999988556,15.1000003815,12.8100004196
"2006-05-03 07:00:00",14.0600004196,0.0010000000475,107.699996948,11.0900001526,6.88000011444,13.6000003815,12.8100004196
"2006-05-03 08:00:00",15.1999998093,0.0010000000475,108.0,10.8500003815,6.75,13.3000001907,12.8299999237
"2006-05-03 09:00:00",16.8099994659,0.0010000000475,108.599998474,10.5399999619,6.23000001907,12.6000003815,12.8699998856
"2006-05-03 10:00:00",18.3199996948,0.0,109.699996948,10.3199996948,5.34999990463,11.6000003815,13.0699996948
"2006-05-03 11:00:00",19.6900005341,0.0,111.300003052,10.1800003052,5.76000022888,11.6999998093,13.8500003815
"2006-05-03 12:00:00",21.8199996948,0.0,112.800003052,9.89999961853,5.15000009537,11.3000001907,13.9499998093
"2006-05-03 13:00:00",23.4599990845,0.0,112.099998474,9.53999996185,5.19000005722,10.8000001907,13.970000267
"2006-05-03 14:00:00",22.6399993896,0.0,111.099998474,9.60000038147,5.07000017166,11.1999998093,13.970000267
"2006-05-03 15:00:00",22.5799999237,0.0,111.0,9.60000038147,4.59000015259,12.6000003815,14.0100002289
"2006-05-03 16:00:00",19.5400009155,0.0,120.400001526,11.0500001907,8.53999996185,11.8999996185,13.9600000381
"2006-05-03 17:00:00",17.1800003052,0.00400000018999,110.400001526,10.6300001144,8.13000011444,12.1999998093,13.9499998093
"2006-05-03 18:00:00",19.0400009155,0.0010000000475,108.400001526,10.0500001907,7.17999982834,12.8000001907,13.1099996567
"2006-05-03 19:00:00",18.7099990845,0.0,108.0,10.0799999237,5.94999980927,15.1999998093,13.0500001907
"2006-05-03 20:00:00",18.0900001526,0.0,107.900001526,10.1899995804,6.48000001907,19.8999996185,13.0200004578
"2006-05-03 21:00:00",17.0,0.0,108.300003052,10.4600000381,7.11999988556,17.8999996185,12.9899997711
"2006-05-03 22:00:00",16.0900001526,0.0,108.300003052,10.6700000763,7.11000013351,24.7999992371,12.9600000381
"2006-05-03 23:00:00",15.5600004196,0.0,108.199996948,10.779999733,7.17999982834,24.7999992371,12.9399995804
"2006-05-04 00:00:00",15.3699998856,0.0010000000475,108.099998474,10.8100004196,7.30000019073,23.1000003815,12.9099998474
"2006-05-04 01:00:00",14.8599996567,0.0010000000475,108.099998474,10.9399995804,7.40999984741,20.2999992371,12.8900003433
"2006-05-04 02:00:00",14.3199996948,0.0010000000475,108.0,11.0500001907,7.40999984741,15.8000001907,12.8599996567
"2006-05-04 03:00:00",14.0100002289,0.0010000000475,107.599998474,11.0900001526,7.40000009537,14.5,12.8299999237
"2006-05-04 04:00:00",13.5399999619,0.0010000000475,107.400001526,11.1800003052,7.40999984741,13.0,12.8199996948
"2006-05-04 05:00:00",13.5,0.0010000000475,107.099998474,11.1599998474,7.48999977112,12.6000003815,12.8100004196
"2006-05-04 06:00:00",13.0699996948,0.0010000000475,106.900001526,11.2399997711,7.51000022888,11.8000001907,12.7899999619
"2006-05-04 07:00:00",12.3800001144,0.0010000000475,107.300003052,11.470000267,7.59999990463,12.1000003815,12.779999733
"2006-05-04 08:00:00",12.9899997711,0.0010000000475,107.599998474,11.3400001526,7.57999992371,11.6999998093,12.8100004196
"2006-05-04 09:00:00",14.6199998856,0.0010000000475,108.0,10.9799995422,7.32999992371,11.8000001907,12.8500003815
"2006-05-04 10:00:00",16.4599990845,0.0010000000475,108.400001526,10.6000003815,7.09999990463,13.1000003815,13.029999733
"2006-05-04 11:00:00",17.8799991608,0.0010000000475,108.900001526,10.3400001526,6.80000019073,15.3000001907,14.0200004578
"2006-05-04 12:00:00",22.7199993134,0.0,112.0,9.65999984741,6.67000007629,13.6000003815,13.9600000381
"2006-05-04 13:00:00",23.9200000763,0.0,111.099998474,9.36999988556,5.48000001907,13.6999998093,13.9099998474
"2006-05-04 14:00:00",24.7800006866,0.0,109.699996948,9.10000038147,5.46000003815,12.3999996185,13.1700000763
"2006-05-04 15:00:00",24.8999996185,0.0,110.0,9.10999965668,4.07999992371,12.8000001907,13.1000003815
"2006-05-04 16:00:00",22.8500003815,0.0,109.599998474,9.43000030518,2.83999991417,11.3999996185,13.0600004196
"2006-05-04 17:00:00",21.7299995422,0.0,108.800003052,9.56999969482,5.73000001907,11.1999998093,13.1000003815
"2006-05-04 18:00:00",20.8299999237,0.0,108.800003052,9.73999977112,6.46000003815,10.8999996185,13.0600004196
"2006-05-04 19:00:00",20.2099990845,0.0,108.400001526,9.81999969482,7.11999988556,11.3000001907,13.0100002289
"2006-05-04 20:00:00",19.1399993896,0.0,108.099998474,10.0,7.15000009537,11.3000001907,12.9799995422
"2006-05-04 21:00:00",17.8299999237,0.0,108.0,10.2700004578,7.21000003815,10.8000001907,12.9399995804
"2006-05-04 22:00:00",17.3999996185,0.0,107.900001526,10.3400001526,7.19999980927,10.6999998093,12.9099998474
"2006-05-04 23:00:00",17.3500003815,0.0,107.900001526,10.3500003815,7.21000003815,11.3999996185,12.8699998856
"2006-05-05 00:00:00",17.2299995422,0.0,107.800003052,10.3699998856,7.23000001907,11.1999998093,12.8500003815
"2006-05-05 01:00:00",17.0900001526,0.0010000000475,107.699996948,10.3999996185,7.19000005722,10.8999996185,12.8299999237
"2006-05-05 02:00:00",17.0300006866,0.0010000000475,107.599998474,10.3999996185,7.23000001907,11.1000003815,12.8199996948
"2006-05-05 03:00:00",16.6700000763,0.0010000000475,107.400001526,10.4499998093,7.23000001907,11.5,12.8100004196
"2006-05-05 04:00:00",16.4500007629,0.0010000000475,107.400001526,10.5,7.23999977112,11.8000001907,12.8000001907
"2006-05-05 05:00:00",16.3099994659,0.0010000000475,107.099998474,10.5,7.28000020981,11.3999996185,12.8000001907
"2006-05-05 06:00:00",16.2199993134,0.0010000000475,107.0,10.5200004578,7.30999994278,11.6999998093,12.8000001907
"2006-05-05 07:00:00",15.9799995422,0.0010000000475,107.0,10.5699996948,7.28999996185,11.0,12.8000001907
"2006-05-05 08:00:00",16.4099998474,0.0010000000475,107.199996948,10.4899997711,7.28999996185,11.8999996185,12.8100004196
"2006-05-05 09:00:00",17.7600002289,0.0010000000475,107.599998474,10.2399997711,7.25,13.3999996185,12.9600000381
"2006-05-05 10:00:00",19.2199993134,0.0010000000475,108.199996948,9.98999977112,7.05999994278,12.3999996185,13.0699996948
"2006-05-05 11:00:00",20.4799995422,0.0010000000475,108.699996948,9.78999996185,6.84999990463,12.1000003815,13.6499996185
"2006-05-05 12:00:00",22.4899997711,0.0010000000475,110.300003052,9.55000019073,6.78999996185,12.3000001907,13.9399995804
"2006-05-05 13:00:00",20.8500003815,0.0010000000475,108.300003052,9.68000030518,6.94999980927,11.1999998093,13.220000267
"2006-05-05 14:00:00",20.3400001526,0.0010000000475,108.0,9.75,7.07999992371,10.8999996185,13.3199996948
"2006-05-05 15:00:00",20.3799991608,0.0010000000475,107.900001526,9.73999977112,7.07999992371,10.5,13.1599998474
"2006-05-05 16:00:00",19.9699993134,0.0010000000475,107.699996948,9.80000019073,7.15999984741,10.8999996185,13.1800003052
"2006-05-05 17:00:00",19.3899993896,0.0010000000475,104.699996948,9.64000034332,7.30999994278,11.6000003815,13.1000003815
"2006-05-05 18:00:00",19.2999992371,0.0010000000475,102.800003052,9.47999954224,7.57000017166,12.1000003815,13.0900001526
"2006-05-05 19:00:00",18.8999996185,0.00200000009499,107.099998474,9.96000003815,7.55999994278,11.6000003815,13.0200004578
"2006-05-05 20:00:00",18.6700000763,0.00200000009499,107.300003052,10.0200004578,7.55999994278,10.8000001907,12.9799995422
"2006-05-05 21:00:00",18.3400001526,0.00200000009499,107.400001526,10.1000003815,7.59000015259,10.3999996185,12.9600000381
"2006-05-05 22:00:00",18.1200008392,0.00200000009499,107.400001526,10.1400003433,7.63000011444,11.3999996185,12.9300003052
"2006-05-05 23:00:00",17.8299999237,0.00200000009499,107.400001526,10.2100000381,7.63999986649,11.1999998093,12.9099998474
"2006-05-06 00:00:00",17.6900005341,0.00200000009499,107.5,10.2399997711,7.63999986649,11.8000001907,12.8900003433
"2006-05-06 01:00:00",17.5599994659,0.00200000009499,107.400001526,10.2600002289,7.63999986649,11.8999996185,12.8699998856
"2006-05-06 02:00:00",17.4099998474,0.00200000009499,107.300003052,10.2899999619,7.63999986649,11.3999996185,12.8500003815
"2006-05-06 03:00:00",17.2000007629,0.00200000009499,107.300003052,10.3299999237,7.63999986649,12.0,12.8199996948
"2006-05-06 04:00:00",17.1599998474,0.00200000009499,107.300003052,10.3299999237,7.65000009537,11.3999996185,12.8100004196
"2006-05-06 05:00:00",16.6599998474,0.00200000009499,107.199996948,10.4399995804,7.65999984741,11.8999996185,12.8000001907
"2006-05-06 06:00:00",16.2099990845,0.00200000009499,107.0,10.5200004578,7.69000005722,10.8000001907,12.8000001907
"2006-05-06 07:00:00",15.7700004578,0.00200000009499,107.0,10.6099996567,7.69999980927,10.8999996185,12.7899999619
"2006-05-06 08:00:00",15.8800001144,0.00200000009499,107.199996948,10.6099996567,7.67000007629,10.6000003815,12.8000001907
"2006-05-06 09:00:00",16.4699993134,0.00200000009499,107.199996948,10.4799995422,7.5,10.5,12.8299999237
"2006-05-06 10:00:00",17.6299991608,0.00200000009499,107.800003052,10.279999733,6.94000005722,10.3000001907,12.9799995422
"2006-05-06 11:00:00",19.9500007629,0.0010000000475,108.900001526,9.90999984741,6.80000019073,9.80000019073,13.8199996948
"2006-05-06 12:00:00",23.7000007629,0.0,112.0,9.47999954224,5.63000011444,9.69999980927,13.9399995804
"2006-05-06 13:00:00",24.5499992371,0.0,111.199996948,9.26000022888,3.8599998951,9.39999961853,13.9200000763
"2006-05-06 14:00:00",25.2600002289,0.0,110.900001526,9.11999988556,2.53999996185,9.80000019073,13.1700000763
"2006-05-06 15:00:00",25.3099994659,0.0,110.800003052,9.10999965668,2.51999998093,9.5,13.1400003433
"2006-05-06 16:00:00",24.4300003052,0.0,110.099998474,9.19999980927,2.57999992371,9.89999961853,13.1000003815
"2006-05-06 17:00:00",23.1499996185,0.0,109.300003052,9.35000038147,4.48000001907,10.0,13.1899995804
"2006-05-06 18:00:00",22.4400005341,0.0,109.300003052,9.47999954224,4.51000022888,9.60000038147,13.0799999237
"2006-05-06 19:00:00",21.5,0.0,108.5,9.57999992371,5.34999990463,9.30000019073,13.0399999619
"2006-05-06 20:00:00",19.7700004578,0.0,108.0,9.86999988556,6.69999980927,9.69999980927,13.0
"2006-05-06 21:00:00",18.6399993896,0.0,108.199996948,10.1099996567,6.86999988556,9.60000038147,12.9799995422
"2006-05-06 22:00:00",17.6499996185,0.0,108.199996948,10.3199996948,6.96999979019,10.0,12.9399995804
"2006-05-06 23:00:00",16.9599990845,0.0,108.099998474,10.4499998093,7.05000019073,10.1000003815,12.9099998474
"2006-05-07 00:00:00",16.3299999237,0.0,107.900001526,10.5799999237,7.11000013351,10.1999998093,12.8900003433
"2006-05-07 01:00:00",16.0699996948,0.0010000000475,107.699996948,10.6199998856,7.19000005722,10.1000003815,12.8699998856
"2006-05-07 02:00:00",15.7700004578,0.0,107.800003052,10.6899995804,7.05000019073,9.80000019073,12.8400001526
"2006-05-07 03:00:00",16.0400009155,0.0010000000475,107.599998474,10.6099996567,7.07999992371,9.80000019073,12.8199996948
"2006-05-07 04:00:00",16.2800006866,0.0,107.800003052,10.5799999237,7.05000019073,10.0,12.8100004196
"2006-05-07 05:00:00",15.8299999237,0.0,107.599998474,10.6599998474,7.01999998093,10.6999998093,12.8000001907
"2006-05-07 06:00:00",15.029999733,0.0,107.300003052,10.8100004196,7.09999990463,10.1000003815,12.779999733
"2006-05-07 07:00:00",14.2299995422,0.0,107.300003052,11.0,7.25,10.3000001907,12.779999733
"2006-05-07 08:00:00",13.75,0.0010000000475,107.0,11.0900001526,7.40999984741,11.8000001907,12.7700004578
"2006-05-07 09:00:00",16.0599994659,0.344000011683,101.300003052,9.97999954224,8.52999973297,250.300003052,12.8100004196
"2006-05-07 10:00:00",16.4300003052,0.171000003815,100.900001526,9.85999965668,8.5,607.099975586,12.8699998856
"2006-05-07 11:00:00",16.7800006866,0.134000003338,100.599998474,9.77000045776,8.32999992371,209.0,13.2700004578
"2006-05-07 12:00:00",16.6900005341,0.0960000008345,99.0999984741,9.64000034332,8.15999984741,123.800003052,13.1400003433
"2006-05-07 13:00:00",16.3700008392,0.0869999974966,96.5999984741,9.46000003815,8.02000045776,103.5,12.9399995804
"2006-05-07 14:00:00",16.8500003815,0.123000003397,103.0,9.97999954224,7.94999980927,603.900024414,12.9600000381
"2006-05-07 15:00:00",16.8799991608,0.101999998093,100.199996948,9.71000003815,7.88000011444,188.300003052,12.8599996567
"2006-05-07 16:00:00",16.6299991608,0.108999997377,100.800003052,9.81999969482,7.73999977112,162.199996948,12.8000001907
"2006-05-07 17:00:00",16.1200008392,0.0710000023246,105.5,10.3800001144,7.82000017166,823.0,12.7600002289
"2006-05-07 18:00:00",15.3400001526,0.070000000298,105.300003052,10.5399999619,7.80000019073,1352.0,12.75
"2006-05-07 19:00:00",15.2399997711,0.0719999969006,105.900001526,10.6199998856,7.80999994278,1013.0,12.7399997711
"2006-05-07 20:00:00",14.8800001144,0.0750000029802,105.599998474,10.6700000763,7.76000022888,698.700012207,12.7399997711
"2006-05-07 21:00:00",14.9799995422,0.0860000029206,105.5,10.6400003433,7.73000001907,336.100006104,12.7399997711
"2006-05-07 22:00:00",14.9399995804,0.104000002146,103.800003052,10.4799995422,7.71000003815,211.899993896,12.7399997711
"2006-05-07 23:00:00",14.8699998856,0.136000007391,103.300003052,10.4499998093,7.67999982834,125.199996948,12.7299995422
"2006-05-08 00:00:00",14.9099998474,0.159999996424,102.699996948,10.3699998856,7.73000001907,185.699996948,12.7299995422
"2006-05-08 01:00:00",14.8100004196,0.171000003815,102.199996948,10.3400001526,7.78000020981,96.9000015259,12.720000267
"2006-05-08 02:00:00",14.6899995804,0.172999992967,101.800003052,10.3299999237,7.82000017166,70.9000015259,12.720000267
"2006-05-08 03:00:00",14.5799999237,0.148000001907,101.900001526,10.3599996567,7.84000015259,59.0,12.7100000381
"2006-05-08 04:00:00",14.4499998093,0.136000007391,101.900001526,10.3999996185,7.88000011444,75.5999984741,12.7100000381
"2006-05-08 05:00:00",14.3299999237,0.141000002623,101.699996948,10.3999996185,7.94000005722,63.0999984741,12.6999998093
"2006-05-08 06:00:00",14.3299999237,0.0230000000447,101.900001526,10.4300003052,8.01000022888,68.5999984741,12.6999998093
"2006-05-08 07:00:00",14.3199996948,0.019999999553,102.300003052,10.470000267,8.06000041962,61.5999984741,12.6999998093
"2006-05-08 08:00:00",14.3199996948,0.0179999992251,102.900001526,10.529999733,8.09000015259,45.2999992371,12.720000267
"2006-05-08 09:00:00",13.720000267,0.0170000009239,103.599998474,10.7399997711,8.14000034332,35.9000015259,12.7399997711
"2006-05-08 10:00:00",13.1199998856,0.0170000009239,101.099998474,10.6300001144,8.60000038147,30.6000003815,12.7899999619
"2006-05-08 11:00:00",13.3999996185,0.0170000009239,104.400001526,10.8999996185,8.53999996185,26.3999996185,12.8100004196
"2006-05-08 12:00:00",13.5100002289,0.0170000009239,105.5,10.9899997711,8.52999973297,27.2999992371,12.9200000763
"2006-05-08 13:00:00",13.9399995804,0.0170000009239,105.599998474,10.8999996185,8.55000019073,30.5,13.0699996948
"2006-05-08 14:00:00",13.6499996185,0.0170000009239,101.800003052,10.5699996948,8.56000041962,57.0999984741,12.9799995422
"2006-05-08 15:00:00",13.5900001526,0.0170000009239,93.5,9.72000026703,8.59000015259,45.2000007629,12.9899997711
"2006-05-08 16:00:00",13.6599998474,0.0170000009239,75.0999984741,7.80000019073,8.52999973297,30.7000007629,12.8999996185
"2006-05-08 17:00:00",13.4300003052,0.0170000009239,108.599998474,11.3299999237,8.48999977112,25.7000007629,12.8599996567
"2006-05-08 18:00:00",13.6400003433,0.0170000009239,108.599998474,11.2899999619,8.47000026703,24.3999996185,12.779999733
"2006-05-08 19:00:00",13.1499996185,0.0170000009239,108.300003052,11.3699998856,8.44999980927,22.6000003815,12.7299995422
"2006-05-08 20:00:00",12.8299999237,0.0170000009239,108.300003052,11.4499998093,8.43000030518,21.2999992371,12.720000267
"2006-05-08 21:00:00",12.7700004578,0.0170000009239,108.099998474,11.4499998093,8.42000007629,23.7000007629,12.7100000381
"2006-05-08 22:00:00",12.5600004196,0.0170000009239,108.199996948,11.5100002289,8.40999984741,18.2999992371,12.6999998093
"2006-05-08 23:00:00",12.3599996567,0.0170000009239,108.0,11.5500001907,8.39999961853,16.7999992371,12.6999998093
"2006-05-09 00:00:00",12.5,0.0170000009239,108.099998474,11.5200004578,8.40999984741,18.8999996185,12.6999998093
"2006-05-09 01:00:00",12.3999996185,0.0170000009239,107.599998474,11.4899997711,8.39999961853,17.2999992371,12.6999998093
"2006-05-09 02:00:00",12.3100004196,0.0170000009239,107.099998474,11.470000267,8.39000034332,16.5,12.6899995804
"2006-05-09 03:00:00",12.1199998856,0.0170000009239,107.400001526,11.5500001907,8.36999988556,27.6000003815,12.6800003052
"2006-05-09 04:00:00",12.6000003815,0.0170000009239,107.300003052,11.4099998474,8.36999988556,30.1000003815,12.6800003052
"2006-05-09 05:00:00",12.3699998856,0.0170000009239,107.400001526,11.4799995422,8.35999965668,22.0,12.6800003052
"2006-05-09 06:00:00",12.75,0.0170000009239,107.5,11.3900003433,8.35999965668,24.5,12.6700000763
"2006-05-09 07:00:00",12.1199998856,0.0170000009239,107.400001526,11.5399999619,8.35000038147,31.1000003815,12.6800003052
"2006-05-09 08:00:00",12.3400001526,0.0170000009239,107.599998474,11.5,8.32999992371,33.9000015259,12.6800003052
"2006-05-09 09:00:00",12.4799995422,0.0170000009239,107.699996948,11.4799995422,8.30000019073,36.9000015259,12.6899995804
"2006-05-09 10:00:00",12.8800001144,0.0170000009239,107.800003052,11.3900003433,8.27999973297,33.5999984741,12.75
"2006-05-09 11:00:00",13.6599998474,0.0170000009239,108.300003052,11.25,8.23999977112,29.8999996185,13.0399999619
"2006-05-09 12:00:00",13.9799995422,0.0170000009239,109.099998474,11.25,8.18999958038,23.5,13.220000267
"2006-05-09 13:00:00",14.8599996567,0.01600000076,110.099998474,11.1400003433,8.09000015259,20.7000007629,13.2299995422
"2006-05-09 14:00:00",15.470000267,0.0149999996647,109.599998474,10.9399995804,7.96000003815,15.6000003815,13.220000267
"2006-05-09 15:00:00",15.0600004196,0.0130000002682,109.5,11.029999733,7.86999988556,15.8999996185,13.2899999619